Location: Buckeye Ditch
(40.9104°N, 122.9517°W)
Time: 17:21:50
(UTC+00:00)

BlueWalker 3 - Pass Details

Date: 29 June 2024
Orbit: 480 x 491 km, 53.2° (Epoch: 23 July)

Event Time Altitude Azimuth Distance (km) Brightness Sun altitude
Rises 07:53:32 0° 310° (NW) 2,539 6.2 -25.7°
Reaches altitude 10° 07:55:43 10° 312° (NW) 1,657 5.1 -25.7°
Enters shadow 07:58:00 35° 321° (NW) 792 3.3 -25.8°
